Regional Weather Roundup
Issued by NWS Sterling, VA

Home | Current Version | Previous Version | Graphics & Text | Print | Product List | Glossary On
Versions: 1 2 3 4 5 6 7 8 9 10 11 12 13 14 15 16 17 18 19 20 21 22 23 24 25 26 27 28 29 30 31 32 33 34 35 36 37 38 39 40 41 42 43 44 45 46 47 48 49 50
391
ASUS41 KLWX 291910
RWRLWX

REGIONAL WEATHER ROUNDUP
NATIONAL WEATHER SERVICE BALTIMORE MD/WASHINGTON DC
300 PM EDT SUN MAY 29 2016

Note: "FAIR" indicates few or no clouds below 12,000 feet
with no significant weather and/or obstructions to visibility.
 TC=TEMPERATURE CELSIUS

 * =Non NWS site. Station does not report precipitation (e.g. rain,
    snow, etc.), thunder, or fog.

DCZ001-MDZ009-015-VAZ040>042-051-053>054-292000-
WASHINGTON METRO

CITY           SKY/WX    TMP DP  RH WIND       PRES   REMARKS
WASHINGTON NAT NOT AVBL
DULLES         PTSUNNY   83  62  49 SE8       30.10S
QUANTICO       PTSUNNY   81  67  62 S5        30.10F
COLLEGE PARK*  CLOUDY    82  63  51 CALM      30.09S
LEESBURG*      FAIR      86  64  48 SW6       30.10F
MANASSAS*      SUNNY     82  64  54 S8        30.09F

$$

MDZ006>007-011-014-292000-
BALTIMORE METRO

CITY           SKY/WX    TMP DP  RH WIND       PRES   REMARKS
BWI AIRPORT    PTSUNNY   84  62  47 S8        30.09F
MD SCIENCE CTR   N/A     83  63  50 MISG      30.09F
MARTIN STATE   PTSUNNY   84  70  61 SE9       30.11F
ANNAPOLIS      PTSUNNY   78  69  73 SE12      30.09F
FORT MEADE*    PTSUNNY   81  64  57 S5        30.11F

$$

MDZ012-015-019>023-292000-
MARYLAND EASTERN SHORE

CITY           SKY/WX    TMP DP  RH WIND       PRES   REMARKS
OCEAN CITY     LGT RAIN  72  69  90 VRB3      30.13S FOG
SALISBURY      RAIN      75  72  90 S13       30.12R FOG
BAY BRIDGE AP* PTSUNNY   81  70  69 SW7       30.10S
CAMBRIDGE*     PTSUNNY   79  68  69 S8        30.10S
EASTON*        CLOUDY    84  73  70 SW6       30.13F HX  91

$$

MDZ017>025-292000-
SOUTHERN MARYLAND

CITY           SKY/WX    TMP DP  RH WIND       PRES   REMARKS
PATUXENT RIVER LGT RAIN  73  70  90 SE14      30.10F
ST INIGOES     CLOUDY    75  71  87 SE7       30.10S
LEONARDTOWN*   CLOUDY    75  68  78 SE8       30.12S

$$

MDZ003>005-292000-
NORTH CENTRAL MARYLAND

CITY           SKY/WX    TMP DP  RH WIND       PRES   REMARKS
FREDERICK*     MOSUNNY   84  66  54 SW6       30.11F
HAGERSTOWN APT CLOUDY    84  55  36 S7        30.10F
WESTMINSTER*   MOSUNNY   90  81  74 S8        30.10F HX 108

$$

MDZ501>502-292000-
WESTERN MARYLAND

CITY           SKY/WX    TMP DP  RH WIND       PRES   REMARKS
OAKLAND*       CLOUDY    70  63  78 CALM      30.20S
CUMBERLAND*    CLOUDY    81  68  65 S5        30.13S

$$

VAZ025>031-292000-
SHENANDOAH VALLEY

CITY           SKY/WX    TMP DP  RH WIND       PRES   REMARKS
WINCHESTER*    FAIR      81  61  50 SE6       30.11F
FRONT ROYAL*   FAIR      79  66  65 CALM      30.10F
LURAY*         LGT RAIN  79  63  57 SW7       30.12F
NEW MARKET*    CLOUDY    79  62  56 SW7       30.11S
STAUNTON*      LGT RAIN  73  63  70 SW5       30.17S
WAYNESBORO*    CLOUDY    72  63  73 CALM      30.16S

$$

WVZ021-048>050-054>055-292000-
EASTERN WEST VIRGINIA PANHANDLE

CITY           SKY/WX    TMP DP  RH WIND       PRES   REMARKS
MARTINSBURG    FAIR      81  58  45 S6        30.10S
PETERSBURG*    LGT RAIN  77  71  80 W3        30.14R

$$

VAZ036>039-050-292000-
CENTRAL FOOTHILLS

CITY           SKY/WX    TMP DP  RH WIND       PRES   REMARKS
CHARLOTTESVILL CLOUDY    80  62  54 CALM      30.11F
CULPEPER*      FAIR      82  65  55 CALM      30.11S
ORANGE*        LGT RAIN  79  66  65 SW3       30.13S
GORDONSVILLE*  CLOUDY    78  67  69 S3        30.10S
WARRENTON*     FAIR      83  58  42 CALM      30.10S

$$

VAZ055>057-292000-
NORTH AND CENTRAL PIEDMONT

CITY           SKY/WX    TMP DP  RH WIND       PRES   REMARKS
FREDERICKSBRG* FAIR      82  67  60 CALM      30.08F
STAFFORD*      PTSUNNY   80  66  62 E6        30.13F

$$

NCZ024-NYZ072-PAZ021-071-VAZ022-071-292000-
OTHER REGIONAL OBSERVATIONS

CITY           SKY/WX    TMP DP  RH WIND       PRES   REMARKS
NEW YORK CITY  SUNNY     82  54  37 VRB7      30.13S
PHILADELPHIA   PTSUNNY   86  60  41 S13       30.09F
PITTSBURGH     CLOUDY    74  58  57 SE7       30.11S
ROANOKE        CLOUDY    74  54  49 NE8       30.17S
RICHMOND       LGT RAIN  76  71  85 E9        30.09S
RALEIGH        CLOUDY    75  71  87 NE8       30.04F

$$

ANZ530>537-292000-
MARINE OBSERVATIONS

STATION/POSITION TIME  TEMP    WIND        PRES
                       AIR SEA DIR/SP/G
                 (UTC) (F)     (DEG/KT/KT) (MB)
THOMAS PT LIGHT  1900   75 70  180/  5/  5 1020.5F
BALT KEY BRIDGE  1800   78     110/ 10/ 12 1019.3F
COVE POINT       1800   72     160/  8/  8 1020.1F
LEWISETTA        1800   73 74  120/ 16/ 18 1018.9F
SOLOMONS ISLAND  1800   73 68  100/  8/ 10   N/A
PINEY POINT      1800          140/ 13/ 14   N/A

$$





USA.gov is the U.S. government's official web portal to all federal, state and local government web resources and services.